Location: Black Swamp Observatory
(41.3920°N, 84.1250°W)
Time: 22:54:03
(UTC-04:00)

Amateur Radio Satellites - All Passes

Search period start: 26 July 2017 22:24
Search period end: 27 July 2017 22:24
Location: Black Swamp Observatory, 41.3920°N, 84.1250°W

Satellite Date Start Highest point End Downlink Frequencies (MHz)
Time Altitude Azimuth
BEESAT 3 26 Jul 22:25:27 22:29:22 55° 242° (WSW) 22:33:12 437.485
ZACube-1 26 Jul 22:28:56 22:31:46 17° 268° (W) 22:34:34 437.345
RS-15 26 Jul 22:29:25 22:39:07 26° 16° (NNE) 22:48:32 29.354- 29.394
Tancredo 1 26 Jul 22:30:07 22:32:01 15° 345° (NNW) 22:33:53 437.200
ISS 26 Jul 22:32:42 22:35:34 28° 336° (NNW) 22:38:26 437.550
AO-85 26 Jul 22:44:43 22:48:39 37° 244° (WSW) 22:52:52 145.980
TIGRISAT 26 Jul 22:46:55 22:50:03 19° 93° (E) 22:53:08 435.000
FO-29 26 Jul 22:51:23 22:58:15 53° 98° (E) 23:04:16 435.910
Oscar 11 26 Jul 22:52:28 22:54:35 13° 269° (W) 22:56:42 .
LO-87 26 Jul 22:56:07 22:58:17 15° 67° (ENE) 23:00:27 145.935 - 145.965
EO-88 26 Jul 22:56:32 23:00:08 61° 259° (W) 23:03:45 145.990 - 145.960
DELFI C3 26 Jul 22:57:31 23:01:12 38° 262° (W) 23:04:56 145.870
PRISM 26 Jul 23:01:37 23:05:04 24° 96° (E) 23:08:29 437.425
BEESAT 2 26 Jul 23:09:32 23:13:31 56° 241° (WSW) 23:17:26 435.950
nSIGHT-1 26 Jul 23:14:00 23:16:19 18° 344° (NNW) 23:18:38 .
UNISAT 6 26 Jul 23:38:54 23:43:14 83° 102° (ESE) 23:47:29 437.425
M-CUBED/EXP-1 PRIME 26 Jul 23:46:22 23:50:26 29° 101° (E) 23:54:30 437.505
SPROUT 26 Jul 23:53:08 23:54:55 12° 63° (ENE) 23:56:45 437.525
Tancredo 1 27 Jul 00:07:07 00:08:20 12° 5° (N) 00:09:33 437.200
ISS 27 Jul 00:11:03 00:12:50 14° 356° (N) 00:14:39 437.550
ESTCUBE 1 27 Jul 00:13:18 00:17:45 81° 77° (ENE) 00:22:16 437.505/2401.250
TIGRISAT 27 Jul 00:22:56 00:26:51 35° 290° (WNW) 00:30:43 435.000
LO-87 27 Jul 00:28:04 00:31:24 34° 262° (W) 00:34:47 145.935 - 145.965
PRISM 27 Jul 00:36:44 00:40:17 27° 291° (WNW) 00:43:49 437.425
FO-29 27 Jul 00:36:58 00:42:49 29° 299° (WNW) 00:48:09 435.910
RS-15 27 Jul 00:43:11 00:55:10 57° 47° (NE) 01:06:28 29.354- 29.394
VELOX 1 27 Jul 00:50:30 00:54:41 44° 71° (ENE) 00:58:55 145.980
DX 1 27 Jul 00:51:31 00:53:58 15° 63° (ENE) 00:56:25 434.975-435.025
nSIGHT-1 27 Jul 00:51:54 00:53:41 14° 5° (N) 00:55:27 .
AIST 2D 27 Jul 00:57:06 01:00:36 84° 102° (ESE) 01:04:06 435.315
DUCHIFAT 1 27 Jul 01:09:10 01:12:59 33° 97° (E) 01:16:44 145.980
50 SAT 27 Jul 01:12:47 01:15:40 26° 70° (ENE) 01:18:36 437.505
POLYITAN 1 27 Jul 01:14:32 01:18:37 49° 100° (E) 01:22:40 437.675
M-CUBED/EXP-1 PRIME 27 Jul 01:20:41 01:24:45 31° 296° (WNW) 01:28:50 437.505
SPROUT 27 Jul 01:26:01 01:30:17 64° 259° (W) 01:34:34 437.525
QB50P2 27 Jul 01:27:37 01:31:51 78° 100° (E) 01:36:03 145.880/145.840
UKube-1 27 Jul 01:28:47 01:32:14 24° 67° (ENE) 01:35:41 .
BUGSAT 1 27 Jul 01:30:51 01:33:23 16° 92° (E) 01:35:53 437.445
NANOSAT C BR1 27 Jul 01:37:37 01:41:50 83° 103° (ESE) 01:46:00 145.865
O/OREOS (USA 219) 27 Jul 01:38:22 01:42:52 72° 67° (ENE) 01:47:22 437.305
EO-79 27 Jul 01:38:56 01:43:10 86° 284° (WNW) 01:47:21 145.935-145.965
Tancredo 1 27 Jul 01:41:55 01:44:29 26° 25° (NNE) 01:47:02 437.200
ISS 27 Jul 01:47:52 01:50:17 19° 17° (NNE) 01:52:41 437.550
Oscar 19 27 Jul 02:02:10 02:05:30 17° 92° (E) 02:08:50 437.125/150
DX 1 27 Jul 02:25:25 02:29:41 54° 259° (W) 02:34:00 434.975-435.025
nSIGHT-1 27 Jul 02:27:59 02:30:52 29° 25° (NNE) 02:33:44 .
VELOX 1 27 Jul 02:28:25 02:31:20 17° 267° (W) 02:34:15 145.980
ITUPSAT 1 27 Jul 02:28:51 02:30:48 12° 60° (ENE) 02:32:45 437.325
Gurwin Techsat 1B 27 Jul 02:43:47 02:48:18 28° 95° (E) 02:52:47 435.225
DUCHIFAT 1 27 Jul 02:45:19 02:48:25 20° 293° (WNW) 02:51:30 145.980
50 SAT 27 Jul 02:46:14 02:48:25 16° 266° (W) 02:50:37 437.505
POLYITAN 1 27 Jul 02:51:36 02:53:59 15° 296° (WNW) 02:56:20 437.675
MOZHAYETS 4 27 Jul 02:55:49 02:58:33 16° 63° (ENE) 03:01:17
RS-15 27 Jul 02:56:16 03:07:24 47° 251° (WSW) 03:18:00 29.354- 29.394
UKube-1 27 Jul 03:04:16 03:08:05 31° 263° (W) 03:11:56 .
BUGSAT 1 27 Jul 03:05:05 03:08:55 39° 289° (WNW) 03:12:41 437.445
Tancredo 1 27 Jul 03:17:10 03:19:55 36° 222° (SW) 03:22:40 437.200
O/OREOS (USA 219) 27 Jul 03:20:43 03:21:37 11° 263° (W) 03:22:31 437.305
ISS 27 Jul 03:23:54 03:27:10 79° 35° (NE) 03:30:24 437.550
AO-7 27 Jul 03:30:41 03:34:44 14° 88° (E) 03:38:44 .
Oscar 19 27 Jul 03:40:06 03:45:10 58° 288° (WNW) 03:50:14 437.125/150
BEESAT 27 Jul 03:48:30 03:53:14 76° 75° (ENE) 03:58:01 436.000
ITAMSAT 1 27 Jul 03:58:32 04:01:33 15° 91° (E) 04:04:32 435.822/435.867
ITUPSAT 1 27 Jul 04:03:10 04:07:57 79° 257° (WSW) 04:12:46 437.325
nSIGHT-1 27 Jul 04:04:17 04:07:18 38° 222° (SW) 04:10:20 .
Gurwin Techsat 1B 27 Jul 04:23:24 04:28:18 38° 292° (WNW) 04:33:10 435.225
MOZHAYETS 4 27 Jul 04:30:46 04:35:15 55° 260° (W) 04:39:45
KKS-1 27 Jul 04:56:35 05:00:29 30° 68° (ENE) 05:04:24 437.445
ISS 27 Jul 05:02:01 05:03:11 11° 231° (SW) 05:04:21 437.550
CUBESAT XI-V 27 Jul 05:10:55 05:15:30 76° 76° (ENE) 05:20:06 437.345
PCSat 27 Jul 05:14:50 05:20:02 49° 113° (ESE) 05:25:15 145.827
AO-7 27 Jul 05:20:21 05:28:45 77° 107° (ESE) 05:37:04 .
STARS 27 Jul 05:20:37 05:24:06 23° 66° (ENE) 05:27:36 437.465
YUBILEINY 27 Jul 05:21:08 05:28:05 25° 66° (ENE) 05:34:55 435.215
BEESAT 27 Jul 05:30:07 05:31:32 11° 271° (W) 05:32:57 436.000
ITAMSAT 1 27 Jul 05:36:17 05:41:27 64° 287° (WNW) 05:46:33 435.822/435.867
SO-50 27 Jul 05:47:58 05:51:01 18° 111° (ESE) 05:54:05 436.795
KKS-1 27 Jul 06:33:17 06:37:01 26° 265° (W) 06:40:45 437.445
LilacSat-2 27 Jul 06:51:09 06:53:42 17° 93° (E) 06:56:15 437.200
CUBESAT XI-V 27 Jul 06:52:46 06:53:24 10° 272° (W) 06:54:02 437.345
DOVE 4 27 Jul 06:56:08 07:01:21 61° 100° (E) 07:06:18 437.250
STARS 27 Jul 06:56:14 07:00:15 33° 263° (W) 07:04:17 437.465
PCSat 27 Jul 06:59:06 07:03:39 27° 312° (NW) 07:08:15 145.827
XW-2F 27 Jul 07:00:55 07:03:43 20° 94° (E) 07:06:31 145.980 - 146.000
AO-7 27 Jul 07:14:11 07:20:42 26° 306° (NW) 07:27:12 .
STRAND 1 27 Jul 07:16:51 07:21:09 27° 66° (ENE) 07:25:26 437.568
YUBILEINY 27 Jul 07:17:00 07:25:42 72° 267° (W) 07:34:20 435.215
SO-50 27 Jul 07:26:41 07:31:06 50° 307° (NW) 07:35:30 436.795
XW-2D 27 Jul 07:30:39 07:34:21 50° 100° (E) 07:38:01 145.860 - 145.880
CUTE-I 27 Jul 07:39:50 07:45:03 50° 100° (E) 07:50:12 437.470
XW-2B 27 Jul 07:40:45 07:44:30 66° 101° (E) 07:48:15 145.730 - 145.750
HO-68 27 Jul 07:55:00 08:00:41 25° 93° (E) 08:06:19 435.675
NUDT-PHONESAT 27 Jul 07:56:39 08:00:21 79° 101° (E) 08:04:01 437.300
XW-2C 27 Jul 07:58:14 08:01:59 71° 285° (WNW) 08:05:45 145.795 - 145.815
KAITUO 1B 27 Jul 08:14:34 08:18:14 58° 285° (WNW) 08:21:54 145.475/437.950
LilacSat-2 27 Jul 08:24:40 08:28:02 31° 289° (WNW) 08:31:26 437.200
UWE-3 27 Jul 08:32:53 08:34:16 11° 90° (E) 08:35:38 435.000/436.395/437.385
XW-2F 27 Jul 08:34:39 08:37:50 27° 290° (WNW) 08:41:01 145.980 - 146.000
DOVE 4 27 Jul 08:34:59 08:38:27 18° 298° (WNW) 08:41:51 437.250
XW-2A 27 Jul 08:38:23 08:41:10 24° 96° (E) 08:43:57 145.665 - 145.685
STRAND 1 27 Jul 08:55:24 09:00:09 37° 262° (W) 09:04:55 437.568
FO-29 27 Jul 09:02:20 09:08:43 29° 61° (ENE) 09:15:10 435.910
XW-2D 27 Jul 09:06:43 09:08:05 12° 295° (WNW) 09:09:27 145.860 - 145.880
CUTE 1.7 + AOD 2 27 Jul 09:09:45 09:14:00 73° 283° (WNW) 09:18:14 437.475
CUBEBUG 2 27 Jul 09:13:58 09:18:10 61° 100° (E) 09:22:16 437.445
SEEDS 27 Jul 09:17:19 09:21:34 86° 102° (ESE) 09:25:49 437.485
YUBILEINY 27 Jul 09:17:29 09:20:47 13° 287° (WNW) 09:24:05 435.215
AO-73 27 Jul 09:18:39 09:21:35 19° 93° (E) 09:24:30 145.935
CUTE-I 27 Jul 09:20:40 09:24:43 22° 297° (WNW) 09:28:44 437.470
HO-68 27 Jul 09:41:48 09:48:51 62° 291° (WNW) 09:55:51 435.675
TIGRISAT 27 Jul 09:45:32 09:48:52 20° 66° (ENE) 09:52:08 435.000
PRISM 27 Jul 09:51:21 09:54:11 18° 65° (ENE) 09:57:03 437.425
AAUSAT CUBESAT 2 27 Jul 09:53:41 09:57:53 81° 283° (WNW) 10:02:03 437.432
UWE-3 27 Jul 10:07:00 10:11:06 56° 286° (WNW) 10:15:09 435.000/436.395/437.385
XW-2A 27 Jul 10:11:31 10:13:43 17° 292° (WNW) 10:15:55 145.665 - 145.685
NO-84 27 Jul 10:12:29 10:13:42 12° 124° (SE) 10:14:57 435.350 FM
ZACube-1 27 Jul 10:15:07 10:19:17 85° 280° (W) 10:23:25 437.345
EO-88 27 Jul 10:27:21 10:28:15 11° 91° (E) 10:29:08 145.990 - 145.960
M-CUBED/EXP-1 PRIME 27 Jul 10:32:23 10:35:42 30° 63° (ENE) 10:39:15 437.505
DELFI C3 27 Jul 10:34:24 10:37:43 24° 95° (E) 10:41:00 145.870
Oscar 11 27 Jul 10:36:47 10:41:06 74° 284° (WNW) 10:45:24 .
UNISAT 6 27 Jul 10:37:01 10:41:38 72° 75° (ENE) 10:46:11 437.425
FO-29 27 Jul 10:45:29 10:53:06 66° 259° (W) 11:00:58 435.910
CUBEBUG 2 27 Jul 10:52:35 10:54:14 12° 298° (WNW) 10:55:52 437.445
AO-73 27 Jul 10:54:10 10:57:55 34° 289° (WNW) 11:01:39 145.935
TIGRISAT 27 Jul 11:20:51 11:25:14 42° 261° (W) 11:29:35 435.000
PRISM 27 Jul 11:25:23 11:29:11 37° 262° (W) 11:33:02 437.425
AIST 2D 27 Jul 11:31:33 11:34:33 27° 71° (ENE) 11:37:33 435.315
HO-68 27 Jul 11:32:29 11:35:09 12° 311° (NW) 11:37:51 435.675
NO-84 27 Jul 11:47:44 11:50:40 51° 323° (NW) 11:53:50 435.350 FM
LO-87 27 Jul 11:55:27 11:57:53 17° 93° (E) 12:00:15 145.935 - 145.965
EO-88 27 Jul 11:58:39 12:02:10 46° 286° (WNW) 12:05:39 145.990 - 145.960
DUCHIFAT 1 27 Jul 12:00:58 12:04:28 26° 68° (ENE) 12:07:58 145.980
ESTCUBE 1 27 Jul 12:06:40 12:09:37 17° 92° (E) 12:12:33 437.505/2401.250
POLYITAN 1 27 Jul 12:06:51 12:10:47 37° 71° (ENE) 12:14:42 437.675
M-CUBED/EXP-1 PRIME 27 Jul 12:07:28 12:10:12 19° 262° (W) 12:13:05 437.505
DELFI C3 27 Jul 12:09:05 12:12:24 25° 291° (WNW) 12:15:43 145.870
BEESAT 3 27 Jul 12:15:26 12:18:33 22° 112° (ESE) 12:21:43 437.485
UNISAT 6 27 Jul 12:17:27 12:18:47 11° 271° (W) 12:20:06 437.425
QB50P2 27 Jul 12:19:46 12:23:56 57° 74° (ENE) 12:28:08 145.880/145.840
BUGSAT 1 27 Jul 12:21:18 12:23:15 13° 63° (ENE) 12:25:11 437.445
NANOSAT C BR1 27 Jul 12:29:12 12:33:22 59° 74° (ENE) 12:37:33 145.865
EO-79 27 Jul 12:30:48 12:35:02 69° 75° (ENE) 12:39:17 145.935-145.965
FO-29 27 Jul 12:36:58 12:39:26 12° 277° (W) 12:41:55 435.910
AO-85 27 Jul 12:59:05 13:03:03 66° 120° (ESE) 13:06:57 145.980
BEESAT 2 27 Jul 13:01:05 13:04:15 23° 113° (ESE) 13:07:27 435.950
AIST 2D 27 Jul 13:05:34 13:07:47 16° 267° (W) 13:10:00 435.315
SPROUT 27 Jul 13:12:13 13:15:26 21° 94° (E) 13:18:38 437.525
Oscar 19 27 Jul 13:18:51 13:23:00 26° 65° (ENE) 13:27:12 437.125/150
NO-84 27 Jul 13:27:23 13:28:50 12° 343° (NNW) 13:30:19 435.350 FM
LO-87 27 Jul 13:28:13 13:31:20 28° 289° (WNW) 13:34:25 145.935 - 145.965
DUCHIFAT 1 27 Jul 13:36:25 13:40:02 27° 264° (W) 13:43:39 145.980
ESTCUBE 1 27 Jul 13:42:18 13:46:38 46° 288° (WNW) 13:50:58 437.505/2401.250
POLYITAN 1 27 Jul 13:43:38 13:46:39 19° 267° (W) 13:49:42 437.675
BEESAT 3 27 Jul 13:52:17 13:55:56 33° 310° (NW) 13:59:39 437.485
BUGSAT 1 27 Jul 13:53:55 13:58:06 59° 259° (W) 14:02:17 437.445
QB50P2 27 Jul 13:58:18 14:00:04 12° 270° (W) 14:01:50 145.880/145.840
PCSat 27 Jul 14:02:32 14:07:39 41° 53° (NE) 14:12:45 145.827
Gurwin Techsat 1B 27 Jul 14:04:43 14:09:44 44° 70° (ENE) 14:14:47 435.225
50 SAT 27 Jul 14:06:54 14:09:50 26° 96° (E) 14:12:44 437.505
NANOSAT C BR1 27 Jul 14:07:55 14:09:26 12° 270° (W) 14:10:57 145.865
DX 1 27 Jul 14:13:48 14:17:25 24° 95° (E) 14:20:59 434.975-435.025
VELOX 1 27 Jul 14:16:17 14:20:47 89° 111° (ESE) 14:25:14 145.980
SO-50 27 Jul 14:17:57 14:21:20 20° 43° (NE) 14:24:45 436.795
AO-7 27 Jul 14:29:12 14:35:32 25° 53° (NE) 14:41:52 .
BEESAT 2 27 Jul 14:38:12 14:41:50 32° 310° (NW) 14:45:31 435.950
AO-85 27 Jul 14:41:41 14:43:50 14° 319° (NW) 14:45:59 145.980
SPROUT 27 Jul 14:47:34 14:51:24 33° 290° (WNW) 14:55:12 437.525
UKube-1 27 Jul 14:50:34 14:54:39 40° 99° (E) 14:58:43 .
Oscar 19 27 Jul 14:57:22 15:02:08 39° 262° (W) 15:06:55 437.125/150
RS-15 27 Jul 15:07:18 15:17:28 33° 103° (ESE) 15:27:45 29.354- 29.394
ITAMSAT 1 27 Jul 15:16:03 15:20:17 26° 65° (ENE) 15:24:31 435.822/435.867
50 SAT 27 Jul 15:40:02 15:42:21 17° 292° (WNW) 15:44:41 437.505
Gurwin Techsat 1B 27 Jul 15:45:40 15:49:51 23° 266° (W) 15:54:03 435.225
PCSat 27 Jul 15:46:14 15:50:52 29° 251° (WSW) 15:55:28 145.827
BEESAT 27 Jul 15:49:26 15:52:45 19° 93° (E) 15:56:03 436.000
DX 1 27 Jul 15:49:44 15:53:34 30° 291° (WNW) 15:57:23 434.975-435.025
O/OREOS (USA 219) 27 Jul 15:50:30 15:54:59 84° 111° (ESE) 15:59:29 437.305
SO-50 27 Jul 15:57:40 16:02:07 56° 241° (WSW) 16:06:36 436.795
ITUPSAT 1 27 Jul 16:04:01 16:07:58 25° 95° (E) 16:11:54 437.325
AO-7 27 Jul 16:19:00 16:27:23 82° 252° (WSW) 16:35:50 .
MOZHAYETS 4 27 Jul 16:25:40 16:29:47 33° 97° (E) 16:33:55
UKube-1 27 Jul 16:27:20 16:30:22 19° 295° (WNW) 16:33:24 .
NO-84 27 Jul 16:43:33 16:46:18 20° 26° (NNE) 16:49:13 435.350 FM
ITAMSAT 1 27 Jul 16:54:35 16:59:29 41° 261° (W) 17:04:27 435.822/435.867
CUBESAT XI-V 27 Jul 17:08:08 17:11:26 19° 92° (E) 17:14:45 437.345
RS-15 27 Jul 17:16:40 17:28:54 76° 305° (NW) 17:41:20 29.354- 29.394
CUTE-I 27 Jul 17:25:55 17:27:45 12° 57° (ENE) 17:29:35 437.470
BEESAT 27 Jul 17:26:11 17:30:44 46° 289° (WNW) 17:35:15 436.000
O/OREOS (USA 219) 27 Jul 17:33:30 17:35:01 11° 310° (NW) 17:36:34 437.305
ITUPSAT 1 27 Jul 17:41:33 17:45:49 34° 292° (WNW) 17:50:03 437.325
XW-2F 27 Jul 17:44:07 17:44:43 10° 64° (ENE) 17:45:19 145.980 - 146.000
DOVE 4 27 Jul 18:00:46 18:05:37 59° 73° (ENE) 18:10:44 437.250
MOZHAYETS 4 27 Jul 18:03:07 18:06:47 24° 293° (WNW) 18:10:27
XW-2D 27 Jul 18:12:12 18:15:16 24° 70° (ENE) 18:18:20 145.860 - 145.880
AO-7 27 Jul 18:16:41 18:21:17 16° 271° (W) 18:25:57 .
NO-84 27 Jul 18:20:19 18:24:09 83° 223° (SW) 18:28:16 435.350 FM
XW-2B 27 Jul 18:22:04 18:25:22 30° 71° (ENE) 18:28:41 145.730 - 145.750
YUBILEINY 27 Jul 18:22:53 18:29:59 28° 82° (E) 18:37:04 435.215
KKS-1 27 Jul 18:23:05 18:27:31 58° 102° (ESE) 18:31:54 437.445
HO-68 27 Jul 18:25:00 18:29:56 20° 56° (NE) 18:34:52 435.675
NUDT-PHONESAT 27 Jul 18:35:50 18:39:09 33° 72° (ENE) 18:42:29 437.300
XW-2C 27 Jul 18:39:11 18:42:49 51° 74° (ENE) 18:46:28 145.795 - 145.815
CUBESAT XI-V 27 Jul 18:44:33 18:48:59 44° 289° (WNW) 18:53:26 437.345
STARS 27 Jul 18:44:59 18:49:09 41° 99° (E) 18:53:17 437.465
KAITUO 1B 27 Jul 18:54:07 18:57:45 59° 75° (ENE) 19:01:23 145.475/437.950
CUTE-I 27 Jul 19:01:33 19:06:55 82° 75° (ENE) 19:12:20 437.470
LilacSat-2 27 Jul 19:05:48 19:09:32 66° 259° (W) 19:13:17 437.200
XW-2F 27 Jul 19:14:41 19:18:21 57° 260° (W) 19:22:02 145.980 - 146.000
UWE-3 27 Jul 19:30:14 19:31:48 12° 62° (ENE) 19:33:22 435.000/436.395/437.385
RS-15 27 Jul 19:33:28 19:43:55 31° 334° (NNW) 19:54:22 29.354- 29.394
DOVE 4 27 Jul 19:40:36 19:43:42 17° 271° (W) 19:46:55 437.250
Tancredo 1 27 Jul 19:45:24 19:48:09 39° 139° (SE) 19:50:56 437.200
XW-2D 27 Jul 19:46:28 19:49:23 21° 265° (W) 19:52:19 145.860 - 145.880
XW-2B 27 Jul 19:57:05 19:59:37 17° 267° (W) 20:02:09 145.730 - 145.750
NO-84 27 Jul 20:00:13 20:01:11 11° 237° (WSW) 20:02:08 435.350 FM
KKS-1 27 Jul 20:01:08 20:03:33 15° 298° (WNW) 20:05:59 437.445
CUTE 1.7 + AOD 2 27 Jul 20:01:56 20:06:07 78° 76° (ENE) 20:10:20 437.475
ISS 27 Jul 20:04:15 20:06:49 22° 134° (SE) 20:09:26 437.550
SEEDS 27 Jul 20:08:37 20:12:41 56° 74° (ENE) 20:16:47 437.485
HO-68 27 Jul 20:09:37 20:16:49 84° 255° (WSW) 20:24:03 435.675
NUDT-PHONESAT 27 Jul 20:10:56 20:13:09 15° 267° (W) 20:15:21 437.300
CUBEBUG 2 27 Jul 20:11:17 20:15:49 52° 74° (ENE) 20:20:16 437.445
AO-73 27 Jul 20:14:30 20:17:15 17° 65° (ENE) 20:19:58 145.935
XW-2C 27 Jul 20:16:42 20:17:18 10° 270° (W) 20:17:55 145.795 - 145.815
YUBILEINY 27 Jul 20:17:22 20:26:06 63° 282° (WNW) 20:34:51 435.215
STARS 27 Jul 20:22:05 20:25:11 19° 295° (WNW) 20:28:17 437.465
BEESAT 3 27 Jul 20:31:55 20:34:34 17° 43° (NE) 20:37:11 437.485
XW-2A 27 Jul 20:41:27 20:44:44 49° 260° (W) 20:48:01 145.665 - 145.685
nSIGHT-1 27 Jul 20:42:58 20:46:08 57° 140° (SE) 20:49:19 .
AAUSAT CUBESAT 2 27 Jul 20:43:20 20:47:23 64° 76° (ENE) 20:51:28 437.432
CUTE-I 27 Jul 20:45:27 20:47:35 12° 271° (W) 20:49:44 437.470
UWE-3 27 Jul 21:03:07 21:07:40 74° 257° (WSW) 21:12:08 435.000/436.395/437.385
STRAND 1 27 Jul 21:05:14 21:10:22 75° 103° (ESE) 21:15:27 437.568
ZACube-1 27 Jul 21:10:16 21:14:41 73° 75° (ENE) 21:19:00 437.345
BEESAT 2 27 Jul 21:18:23 21:21:12 18° 43° (NE) 21:24:00 435.950
DELFI C3 27 Jul 21:20:44 21:22:58 15° 65° (ENE) 21:25:13 145.870
Tancredo 1 27 Jul 21:21:07 21:23:37 25° 336° (NNW) 21:26:08 437.200
AO-85 27 Jul 21:29:23 21:33:32 56° 55° (NE) 21:37:59 145.980
Oscar 11 27 Jul 21:31:07 21:35:24 83° 77° (ENE) 21:39:43 .
ISS 27 Jul 21:40:00 21:43:08 43° 330° (NNW) 21:46:16 437.550
SEEDS 27 Jul 21:47:16 21:48:43 12° 270° (W) 21:50:12 437.485
AO-73 27 Jul 21:48:53 21:53:08 46° 261° (W) 21:57:17 145.935
CUBEBUG 2 27 Jul 21:49:52 21:52:40 16° 268° (W) 21:55:28 437.445
RS-15 27 Jul 21:52:36 22:01:58 24° 9° (N) 22:11:06 29.354- 29.394
FO-29 27 Jul 21:57:45 22:02:33 20° 87° (E) 22:06:57 435.910
HO-68 27 Jul 22:02:02 22:05:30 14° 272° (W) 22:08:59 435.675
BEESAT 3 27 Jul 22:08:34 22:12:28 55° 242° (WSW) 22:16:19 437.485
AAUSAT CUBESAT 2 27 Jul 22:23:07 22:23:16 10° 271° (W) 22:23:23 437.432
